BEL9DN EDDF-EBBR

Flight info

Callsign BEL9DN
Flight time N/A
Altitude 22000
Route SOBRA2L/18 SOBRA Y180 BITBU Y181 GOPAS N852 LNO
Aircraft A320/M-SDE3FGHIRWY/LB1

Departure

Time 2026-04-13 14:52
Airport Frankfurt Main Airport (EDDF)

Arrival

Time N/A
Airport Brussels Airport (EBBR)
Time Latitude Longitude Altitude Speed Heading
2026-04-13 14:03 50.04042 8.55545 351 ft 0 kts 160°
2026-04-13 14:43 50.04040 8.55544 351 ft 2 kts 180°
2026-04-13 14:43 50.04027 8.55537 354 ft 1 kts 206°
2026-04-13 14:43 50.04026 8.55536 354 ft 1 kts 208°
2026-04-13 14:43 50.04025 8.55533 353 ft 0 kts 214°
2026-04-13 14:45 50.04024 8.55533 350 ft 1 kts 214°
2026-04-13 14:45 50.03966 8.55484 357 ft 12 kts 210°
2026-04-13 14:46 50.03915 8.55390 352 ft 11 kts 248°
2026-04-13 14:46 50.03887 8.55276 353 ft 11 kts 249°
2026-04-13 14:46 50.03859 8.55158 353 ft 12 kts 250°
2026-04-13 14:46 50.03831 8.55037 355 ft 12 kts 250°
2026-04-13 14:47 50.03801 8.54911 352 ft 13 kts 250°
2026-04-13 14:47 50.03766 8.54769 352 ft 15 kts 249°
2026-04-13 14:47 50.03727 8.54607 350 ft 17 kts 250°
2026-04-13 14:47 50.03681 8.54413 348 ft 21 kts 249°
2026-04-13 14:48 50.03629 8.54197 349 ft 22 kts 249°
2026-04-13 14:48 50.03575 8.53965 337 ft 24 kts 249°
2026-04-13 14:48 50.03516 8.53720 337 ft 25 kts 250°
2026-04-13 14:48 50.03454 8.53460 336 ft 25 kts 249°
2026-04-13 14:49 50.03396 8.53221 336 ft 24 kts 248°
2026-04-13 14:49 50.03347 8.53021 332 ft 14 kts 247°
2026-04-13 14:49 50.03316 8.52887 332 ft 12 kts 250°
2026-04-13 14:49 50.03295 8.52800 334 ft 5 kts 250°
2026-04-13 14:50 50.03287 8.52763 332 ft 2 kts 249°
2026-04-13 14:50 50.03281 8.52739 333 ft 2 kts 250°
2026-04-13 14:50 50.03278 8.52727 333 ft 1 kts 249°
2026-04-13 14:50 50.03264 8.52671 334 ft 8 kts 249°
2026-04-13 14:51 50.03233 8.52605 334 ft 10 kts 209°
2026-04-13 14:51 50.03059 8.52600 335 ft 55 kts 180°
2026-04-13 14:51 50.02442 8.52604 331 ft 120 kts 180°
2026-04-13 14:51 50.01429 8.52609 335 ft 168 kts 180°
2026-04-13 14:52 50.00254 8.52669 910 ft 167 kts 177°
2026-04-13 14:52 49.99091 8.52788 1583 ft 169 kts 175°
2026-04-13 14:52 49.97878 8.52937 2049 ft 183 kts 175°
2026-04-13 14:52 49.96558 8.53117 2509 ft 197 kts 174°
2026-04-13 14:53 49.95138 8.53282 2950 ft 214 kts 178°
2026-04-13 14:53 49.93587 8.53339 3384 ft 231 kts 179°
2026-04-13 14:53 49.91953 8.53374 4120 ft 235 kts 180°
2026-04-13 14:53 49.90322 8.53418 5074 ft 234 kts 180°
2026-04-13 14:54 49.88690 8.53478 5969 ft 236 kts 179°
2026-04-13 14:54 49.87052 8.53292 6775 ft 239 kts 193°
2026-04-13 14:54 49.85396 8.52440 7181 ft 262 kts 200°
2026-04-13 14:54 49.83678 8.51454 7832 ft 270 kts 199°
2026-04-13 14:55 49.81903 8.50436 8693 ft 273 kts 199°
2026-04-13 14:55 49.80115 8.49416 9602 ft 274 kts 198°
2026-04-13 14:55 49.78356 8.48284 10393 ft 279 kts 208°
2026-04-13 14:55 49.76838 8.46198 10671 ft 307 kts 233°
2026-04-13 14:56 49.76033 8.43003 10961 ft 333 kts 261°
2026-04-13 14:56 49.76253 8.39376 11577 ft 345 kts 281°
2026-04-13 14:56 49.76830 8.35750 12318 ft 349 kts 282°
2026-04-13 14:56 49.77424 8.32097 13077 ft 352 kts 282°
2026-04-13 14:57 49.78030 8.28404 13818 ft 356 kts 282°
2026-04-13 14:57 49.78632 8.24712 14451 ft 359 kts 282°
2026-04-13 14:57 49.79243 8.20945 15101 ft 362 kts 282°
2026-04-13 14:58 49.80463 8.13322 16393 ft 368 kts 281°
2026-04-13 14:58 49.81074 8.09448 17015 ft 372 kts 281°
2026-04-13 14:58 49.81689 8.05545 17630 ft 375 kts 281°
2026-04-13 14:58 49.82311 8.01595 18236 ft 379 kts 281°
2026-04-13 14:59 49.82938 7.97617 18769 ft 382 kts 280°
2026-04-13 14:59 49.83572 7.93593 19312 ft 385 kts 280°
2026-04-13 14:59 49.84206 7.89559 19850 ft 388 kts 280°
2026-04-13 14:59 49.84846 7.85474 20389 ft 391 kts 279°
2026-04-13 15:00 49.85486 7.81365 20937 ft 394 kts 279°
2026-04-13 15:00 49.86130 7.77224 21472 ft 397 kts 279°
2026-04-13 15:00 49.86783 7.73057 21861 ft 399 kts 279°
2026-04-13 15:00 49.87442 7.68902 21950 ft 392 kts 279°
2026-04-13 15:01 49.88089 7.64825 21953 ft 388 kts 279°
2026-04-13 15:01 49.88723 7.60773 21949 ft 387 kts 278°
2026-04-13 15:01 49.89347 7.56723 21949 ft 386 kts 278°
2026-04-13 15:01 49.89968 7.52664 21950 ft 386 kts 278°
2026-04-13 15:02 49.90585 7.48610 21948 ft 386 kts 278°
2026-04-13 15:02 49.91194 7.44610 21947 ft 386 kts 278°
2026-04-13 15:02 49.91808 7.40558 21947 ft 386 kts 278°
2026-04-13 15:02 49.92422 7.36504 21947 ft 386 kts 278°
2026-04-13 15:03 49.93039 7.32448 21948 ft 386 kts 278°
2026-04-13 15:03 49.93655 7.28392 21966 ft 386 kts 278°
2026-04-13 15:03 49.94270 7.24337 21964 ft 386 kts 278°
2026-04-13 15:03 49.94884 7.20282 21963 ft 386 kts 278°
2026-04-13 15:04 49.95495 7.16234 21963 ft 385 kts 278°
2026-04-13 15:04 49.96104 7.12179 21961 ft 385 kts 278°
2026-04-13 15:04 49.96710 7.08130 21958 ft 385 kts 278°
2026-04-13 15:04 49.97314 7.04079 21954 ft 385 kts 278°
2026-04-13 15:05 49.97915 7.00029 21952 ft 385 kts 278°
2026-04-13 15:05 49.98515 6.95972 21941 ft 385 kts 278°
2026-04-13 15:05 49.99078 6.91914 21938 ft 382 kts 273°
2026-04-13 15:05 49.99261 6.87832 21939 ft 376 kts 263°
2026-04-13 15:06 49.99138 6.83781 21960 ft 375 kts 262°
2026-04-13 15:06 49.99011 6.79727 21950 ft 375 kts 262°
2026-04-13 15:06 49.98886 6.75670 21944 ft 376 kts 262°
2026-04-13 15:06 49.98764 6.71611 21939 ft 376 kts 262°
2026-04-13 15:07 49.98643 6.67553 21936 ft 376 kts 262°
2026-04-13 15:07 49.98522 6.63487 21935 ft 376 kts 262°
2026-04-13 15:07 49.98398 6.59432 21934 ft 376 kts 262°
2026-04-13 15:07 49.98270 6.55418 21933 ft 376 kts 262°
2026-04-13 15:08 49.98141 6.51356 21935 ft 376 kts 262°
2026-04-13 15:08 49.98010 6.47297 21935 ft 376 kts 262°
2026-04-13 15:08 49.97878 6.43238 21935 ft 376 kts 262°
2026-04-13 15:08 49.97748 6.39175 21935 ft 376 kts 262°
2026-04-13 15:09 49.97616 6.35114 21975 ft 376 kts 262°
2026-04-13 15:09 49.97482 6.31058 21970 ft 376 kts 262°
2026-04-13 15:09 49.97347 6.26998 21967 ft 376 kts 262°
2026-04-13 15:09 49.97211 6.22952 21965 ft 376 kts 262°
2026-04-13 15:10 49.97071 6.18903 21970 ft 375 kts 261°
2026-04-13 15:10 49.96986 6.14841 21967 ft 379 kts 269°
2026-04-13 15:10 49.97695 6.10855 21964 ft 393 kts 292°
2026-04-13 15:10 49.99333 6.07402 21962 ft 403 kts 310°
2026-04-13 15:11 50.01543 6.04668 21955 ft 410 kts 325°
2026-04-13 15:11 50.04136 6.02764 21953 ft 415 kts 336°
2026-04-13 15:11 50.06838 6.01159 21944 ft 416 kts 336°
2026-04-13 15:11 50.09546 5.99564 21945 ft 416 kts 336°
2026-04-13 15:12 50.12264 5.97983 21944 ft 417 kts 336°
2026-04-13 15:12 50.14987 5.96410 21944 ft 417 kts 336°
2026-04-13 15:12 50.17715 5.94843 21953 ft 418 kts 336°
2026-04-13 15:12 50.20449 5.93274 21957 ft 419 kts 336°
2026-04-13 15:13 50.23178 5.91703 21847 ft 415 kts 336°
2026-04-13 15:13 50.25867 5.90147 21415 ft 410 kts 336°
2026-04-13 15:13 50.28538 5.88594 20896 ft 409 kts 336°
2026-04-13 15:13 50.31210 5.87039 20372 ft 408 kts 336°
2026-04-13 15:14 50.33864 5.85489 19856 ft 407 kts 336°
2026-04-13 15:14 50.36516 5.83940 19341 ft 406 kts 336°
2026-04-13 15:14 50.39161 5.82398 18835 ft 405 kts 336°
2026-04-13 15:14 50.41763 5.80886 18452 ft 401 kts 337°
2026-04-13 15:15 50.44418 5.79344 17928 ft 400 kts 337°
2026-04-13 15:15 50.46968 5.77858 17515 ft 392 kts 336°
2026-04-13 15:15 50.49532 5.76361 16791 ft 383 kts 336°
2026-04-13 15:15 50.51976 5.74932 16342 ft 368 kts 336°
2026-04-13 15:16 50.54316 5.73555 15901 ft 361 kts 336°
2026-04-13 15:16 50.56641 5.72112 15466 ft 357 kts 330°
2026-04-13 15:16 50.58728 5.70060 15031 ft 351 kts 317°
2026-04-13 15:16 50.60440 5.67390 14607 ft 345 kts 305°
2026-04-13 15:17 50.61941 5.64439 14185 ft 344 kts 304°
2026-04-13 15:17 50.63438 5.61506 13767 ft 344 kts 305°
2026-04-13 15:17 50.64929 5.58581 13313 ft 342 kts 306°
2026-04-13 15:17 50.66420 5.55650 12861 ft 340 kts 306°
2026-04-13 15:18 50.67892 5.52753 12416 ft 337 kts 306°
2026-04-13 15:18 50.69351 5.49880 11967 ft 331 kts 306°
2026-04-13 15:18 50.70757 5.47109 11538 ft 317 kts 306°
2026-04-13 15:18 50.72108 5.44444 11131 ft 306 kts 306°
2026-04-13 15:19 50.73420 5.41847 10720 ft 299 kts 306°
2026-04-13 15:19 50.74703 5.39306 10315 ft 292 kts 307°
2026-04-13 15:19 50.75964 5.36804 10135 ft 293 kts 307°
2026-04-13 15:19 50.77238 5.34264 10025 ft 296 kts 307°
2026-04-13 15:20 50.78515 5.31718 9813 ft 294 kts 307°
2026-04-13 15:20 50.79796 5.29166 9307 ft 297 kts 307°
2026-04-13 15:20 50.81075 5.26627 8921 ft 294 kts 308°
2026-04-13 15:20 50.82341 5.24109 8550 ft 293 kts 308°
2026-04-13 15:21 50.83606 5.21579 8175 ft 294 kts 308°
2026-04-13 15:21 50.84877 5.19036 7799 ft 295 kts 308°
2026-04-13 15:21 50.86142 5.16499 7413 ft 288 kts 308°
2026-04-13 15:21 50.87326 5.14105 7274 ft 261 kts 307°
2026-04-13 15:22 50.88184 5.11682 6745 ft 256 kts 291°
2026-04-13 15:22 50.88791 5.09078 6258 ft 248 kts 291°
2026-04-13 15:22 50.89384 5.06566 5823 ft 239 kts 292°
2026-04-13 15:22 50.89962 5.04144 5433 ft 231 kts 292°
2026-04-13 15:23 50.90532 5.01775 5044 ft 230 kts 292°
2026-04-13 15:23 50.91099 4.99432 4671 ft 226 kts 292°
2026-04-13 15:23 50.91663 4.97106 4305 ft 226 kts 292°
2026-04-13 15:23 50.92224 4.94798 4106 ft 225 kts 292°
2026-04-13 15:24 50.92786 4.92483 4066 ft 225 kts 292°
2026-04-13 15:24 50.93350 4.90166 3978 ft 226 kts 292°
2026-04-13 15:24 50.93908 4.87868 3878 ft 218 kts 292°
2026-04-13 15:24 50.94437 4.85680 3786 ft 207 kts 292°
2026-04-13 15:25 50.94941 4.83594 3692 ft 198 kts 292°
2026-04-13 15:25 50.95417 4.81620 3652 ft 186 kts 292°
2026-04-13 15:25 50.95784 4.79673 3546 ft 184 kts 278°
2026-04-13 15:25 50.95685 4.77649 3467 ft 187 kts 255°
2026-04-13 15:26 50.95250 4.75699 3277 ft 188 kts 252°
2026-04-13 15:26 50.94804 4.73756 3034 ft 188 kts 252°
2026-04-13 15:26 50.94358 4.71805 2780 ft 188 kts 253°
2026-04-13 15:26 50.93917 4.69875 2521 ft 184 kts 253°
2026-04-13 15:27 50.93502 4.68051 2360 ft 169 kts 253°
2026-04-13 15:27 50.93104 4.66317 2060 ft 163 kts 253°
2026-04-13 15:27 50.92725 4.64665 1822 ft 156 kts 252°
2026-04-13 15:27 50.92362 4.63084 1613 ft 151 kts 252°